Location: Ku?niki
(51.4449°N, 17.8974°E)
Time: 05:38:46
(UTC+00:00)

Cosmos 2251 Rocket - Pass Details

Date: 18 September 2020
Orbit: 764 x 792 km, 74.0° (Epoch: 18 October)

Event Time Altitude Azimuth Distance (km) Brightness Sun altitude
Rises 20:05:41 0° 336° (NNW) 3,303 7.8 -27.6°
Reaches altitude 10° 20:08:08 10° 340° (NNW) 2,369 6.8 -27.9°
Enters shadow 20:12:50 59° 25° (NNE) 917 3.9 -28.4°
